sat.trackr.live / text

‹ back to catalog

STARLINK-30443

NORAD 57894 · 2023-146D

PAYLOAD ACTIVE UNKNOWN

§ Identity

Operator
Country
US
Launch date
2023-09-20
Launch site
AFETR
Launch vehicle
Mass (kg)
RCS (m²)

Purposes: comms

External: N2YO · Heavens-Above · Gunter

§ Orbital elements

Epoch: 2026-09-20T09:17:46.630464Z

Period
94.27 min
Inclination
43.0010°
Eccentricity
0.0000816
Mean motion
15.27577754 rev/d
Perigee alt
482.5 km
Apogee alt
483.6 km
Semi-major
6,861.2 km
B*
-3.0423e-5
RAAN
294.5771°
Arg perigee
269.8548°
Mean anomaly
90.2210°
Rev number
16,683

§ Raw data

STARLINK-304431 57894U 23146D   26263.38734526 -.00001099  00000+0 -30423-4 0  99922 57894  43.0010 294.5771 0000816 269.8548  90.2210 15.27577754166833

JSON: /api/v1/satellites/57894 · /tle

For live sub-satellite position, see the globe view (requires WebGL).

§ Visibility from observer

Set your observer location to see the next 7 days of passes ≥ 10°. The values pass through the URL so the page stays shareable.

No JS? Fill the form by hand. The geolocation button needs JavaScript.